Home   Weather   Township of Washington   Past weeks
Flag for USA

Past Weather in Township of Washington, Indiana, USA — Yesterday and Last 2 Weeks

Now
58 °F

Sunny.


Feels Like: 56 °F
Forecast: 65 / 34 °F
Wind: 8 mph from South

Location: Huntingburg Airport

Current Time: Oct 18, 2019 at 12:50:53 pm

Latest Report: Oct 18, 2019 at 11:56 am


Visibility: 10 mi

Pressure: 30.11 "Hg

Humidity: 54%

Dew Point: 41 °F

Location of Township of WashingtonLocation

Past Weather in Township of Washington — Graph

°F

Township of Washington Temperature Yesterday

Maximum temperature yesterday: 59 °F (at 3:56 pm)
Minimum temperature yesterday: 36 °F (at 7:56 am)
Average temperature yesterday: 46 °F

High & Low Weather Summary for the Past Weeks

 TemperatureHumidityPressure
High87 °F (Oct 3, 1:56 pm)100% (Oct 6, 5:31 pm)30.29 "Hg (Oct 6, 5:31 pm)
Low35 °F (Oct 12, 6:56 am)22% (Oct 14, 3:56 pm)29.80 "Hg (Oct 15, 11:56 pm)
Average58 °F74%30.08 "Hg
* Reported Oct 3 10:56 am — Oct 18 10:56 am, Township of Washington. Weather by CustomWeather, © 2019

Note: Actual official high and low records may vary slightly from our data, if they occured in-between our weather recording intervals... More about our weather records

Advertising

Township of Washington Weather History for the Previous 24 Hours

Scroll right to see more
 ConditionsComfort  
Time TempWeatherWind HumidityBarometerVisibility
10:56 am
Fri, Oct 18
52 °FSunny.5 mph69%30.11 "Hg8 mi
9:56 am46 °FSunny.3 mph83%30.11 "Hg10 mi
8:56 am37 °FSunny.No wind100%30.11 "Hg10 mi
7:56 am37 °FClear.No wind100%30.07 "Hg10 mi
6:56 am36 °FClear.No wind100%30.07 "Hg10 mi
5:56 am36 °FClear.No wind100%30.06 "Hg10 mi
4:56 am36 °FClear.No wind100%30.05 "Hg9 mi
3:56 am37 °FClear.No wind100%30.06 "Hg10 mi
2:56 am38 °FClear.No wind100%30.05 "Hg10 mi
1:56 am38 °FClear.5 mph100%30.05 "Hg8 mi
12:56 am40 °FClear.No wind97%30.05 "Hg8 mi
11:56 pm
Thu, Oct 17
42 °FClear.No wind92%30.06 "Hg10 mi
10:56 pm42 °FClear.No wind89%30.05 "Hg10 mi
9:56 pm44 °FClear.No wind85%30.05 "Hg10 mi
8:56 pm46 °FClear.No wind77%30.04 "Hg10 mi
7:56 pm50 °FClear.3 mph63%30.03 "Hg10 mi
6:56 pm54 °FSunny.5 mph57%30.02 "Hg10 mi
5:56 pm58 °FSunny.7 mph50%30.02 "Hg10 mi
4:56 pm59 °FScattered clouds.5 mph46%30.03 "Hg10 mi
3:56 pm59 °FSunny.8 mph46%30.03 "Hg10 mi
2:56 pm57 °FSunny.7 mph49%30.04 "Hg10 mi
1:56 pm57 °FPassing clouds.7 mph49%30.06 "Hg10 mi
12:56 pm54 °FSunny.6 mph53%30.09 "Hg10 mi
Weather by CustomWeather, © 2019

See weather overview